Simultaneous Nadir Overpasses (SNOs) Predictions

Prediction of SNOs between GOES-16 and AQUA Satellite Orbit:

Table of predicted SNOs for the next 14.0 days since TLE Epoch: 8/31/2018
Index Date Time (GOES-16) GOES-16 Lat,Lon AQUA Lat,Lon Distance(km) Time Diff (sec)
1 09/01/2018 18:29:50 0.02, -75.22 0.44, -73.27 222.17 80
2 09/02/2018 06:51:05 -0.03, -75.22 0.67, -78.42 364.02 80
3 09/04/2018 06:38:52 -0.03, -75.24 0.02, -75.46 25.37 80
4 09/06/2018 06:23:59 -0.04, -75.26 -0.64, -72.51 313.53 80
5 09/06/2018 18:45:22 0.04, -75.27 -0.50, -77.69 275.80 80
6 09/08/2018 18:35:49 0.04, -75.29 0.16, -74.73 63.98 80
7 09/10/2018 18:23:36 0.04, -75.33 0.82, -71.77 404.68 80
8 09/11/2018 06:44:51 -0.05, -75.34 0.28, -76.93 180.61 80
9 09/13/2018 06:29:57 -0.05, -75.38 -0.32, -73.96 161.06 80
10 09/13/2018 18:51:21 0.05, -75.39 -0.76, -79.15 427.79 80




NCC Satellite Simultaneous Nadir Overpasses (SNOs) Prediction Service
